Вернуться в каталог

STARLINK-34182

АктивенСвязьVLEO
NORAD 64013·PAYLOAD·🇺🇸 United States

Запущен May 14, 2025 с Cape Canaveral Space Force Station

Loading…

Ближайшие Пролёты (ближайшие 24 часа)

TLE

СвежийSource: CelesTrak SupGP

Эпоха: Sep 15, 2026, 03:32 UTC

1 64013C 25101V   26258.14770833  .00035899  00000+0  12998-2 0  2581
2 64013  43.0021   4.8320 0001496 267.7289 212.3107 15.27573579    12

Отслеживайте STARLINK-34182 в реальном времени с AllMySat

Download on the App Store